Luka Balkovec

Scout - NK Domzale
3 Dez 2028
Sonntag
Verarbeitung

Persönlichkeit

Anpassungsfähigkeit (7) Ehrgeiz (3) Kontroverse (12) Loyalität (5) Druck (10) Professionalität (7) Fairness (13) Temperament (20)

Profil

Trainerstil Demokratisch
Lizenz Kontinentale A
Entschlossenheit 9
Menschenführung 6
Motivation 11
Disziplin 7
Arbeitszufriedenheit
100%
Ermüdung
0%
Rolle Scout
Gehalt 53.0K p/W
Vertrag 14.03.2030

Leistung

Verhalten Gut
Trainingseffektivität
18%
Spielerentwicklung
55%
Verletzungsprävention
55%
Taktische Umsetzung
20%

Letzte Ereignisse

Nahm an einer Scouting-Besprechung teil jetzt
Empfahl ein Transferziel jetzt
Empfahl ein Transferziel jetzt
Empfahl ein Transferziel jetzt
Empfahl ein Transferziel jetzt
Empfahl ein Transferziel jetzt
Nahm an einer Scouting-Besprechung teil jetzt
Spieler begutachtet jetzt

Aktuell beobachtet

111
Spieler Verein Status Fähigkeit Vertrauen Beobachtet Zuletzt beobachtet Letzte Stimme
Sebastián de Marco Fenix Aktiv 108 / 116 40% 3 02.12.2028 -
Juan Peinipil Madryn Aktiv 108 / 118 40% 2 02.12.2028 -
Germán Cervera Alvarado Aktiv 110 / 112 40% 1 02.12.2028 -
Tomás Fernández Aldosivi Aktiv 107 / 115 40% 3 01.12.2028 -
Tomás Jerez San Miguel Aktiv 100 / 112 40% 5 01.12.2028 -
Joseph Arumala Ikorodu City Aktiv 94 / 88 40% 2 01.12.2028 -
Lisandro Cabrera Maipú Aktiv 122 / 119 40% 5 30.11.2028 -
Matías Sosa Arsenal Aktiv 110 / 113 40% 2 30.11.2028 -
Santiago Sala Güemes Aktiv 115 / 112 40% 5 30.11.2028 -
Agustín Gallo Tristán Suárez Aktiv 103 / 113 40% 3 27.11.2028 -
José Barreto Quilmes Aktiv 123 / 101 40% 2 27.11.2028 -
Sebastián Cocimano Nueva Chicago Aktiv 114 / 119 40% 5 26.11.2028 -
Lucas Pedraza Defensores Unidos Aktiv 96 / 107 40% 3 26.11.2028 -
Joaquín Zappacosta Morón Aktiv 105 / 105 40% 4 26.11.2028 -
Jerónimo Porto Lapegüe San Telmo Aktiv 121 / 120 40% 10 25.11.2028 -
Daniel Barrea Godoy Cruz Aktiv 128 / 130 40% 5 25.11.2028 -
Nicolás Cordero Aldosivi Aktiv 112 / 132 40% 3 25.11.2028 -
Sagir Arce Saburtalo Aktiv 94 / 80 40% 2 24.11.2028 -
Juan David Rueda Alianza Petrolera Aktiv 116 / 119 40% 1 24.11.2028 -
Rodrigo Bogarín Barracas Central Aktiv 121 / 111 40% 2 23.11.2028 -
Gianluca Pugliese Güemes Aktiv 107 / 123 40% 2 23.11.2028 -
Sebastián Marfort Racing Aktiv 111 / 102 40% 4 22.11.2028 -
Camilo Machado Madryn Aktiv 100 / 129 40% 4 21.11.2028 -
Federico Álvarez Dinamo Tbilisi Aktiv 109 / 107 40% 3 21.11.2028 -
Enzo González Defensores Aktiv 103 / 101 40% 5 21.11.2028 -
Mauro Molina Estudiantes Aktiv 114 / 128 40% 2 18.11.2028 -
Lorenzo Barrera Agropecuario Argentino Aktiv 103 / 92 40% 2 18.11.2028 -
Antony Alonso Deportivo Riestra Aktiv 115 / 130 40% 1 16.11.2028 -
Blas Armoa Gimnasia y Esgrima Aktiv 114 / 139 40% 1 16.11.2028 -
Facundo Krüger Temperley Aktiv 109 / 129 40% 3 15.11.2028 -
Clemente Montes Santiago Wanderers Aktiv 115 / 140 40% 1 15.11.2028 -
Franco Ayunta Temperley Aktiv 121 / 113 40% 3 14.11.2028 -
Mauro Valiente Estudiantes Aktiv 128 / 118 40% 3 12.11.2028 -
Favio Cabral Mitre Aktiv 111 / 109 40% 3 12.11.2028 -
Julián Brea Cobresal Aktiv 99 / 112 40% 1 09.11.2028 -
Dylan Cabral Arsenal Aktiv 102 / 123 40% 2 08.11.2028 -
Marco Miori Alvarado Aktiv 105 / 102 40% 3 07.11.2028 -
Augusto Berrondo Tristán Suárez Aktiv 120 / 120 40% 1 06.11.2028 -
Nicolás Medina Atlanta Aktiv 102 / 110 40% 3 05.11.2028 -
Dato Mchedlidze Tskhinvali Aktiv 108 / 123 40% 1 31.10.2028 -
Luis Sandoval Independiente Medellin Aktiv 117 / 133 40% 2 23.10.2028 -
Juan Mendoza Güemes Aktiv 103 / 104 40% 1 23.10.2028 -
Juan Rocca Gimnasia y Tiro Aktiv 111 / 105 40% 1 23.10.2028 -
José María Ingratti Dinamo Tbilisi Aktiv 103 / 120 40% 3 22.10.2028 -
Luca Franco Arsenal Aktiv 107 / 111 40% 3 21.10.2028 -
Renzo Conechny Tristán Suárez Aktiv 117 / 91 40% 1 13.10.2028 -
Martín Pino Godoy Cruz Aktiv 106 / 114 40% 1 08.10.2028 -
Genaro Rossi San Martín SJ Aktiv 110 / 119 40% 2 07.10.2028 -
Bruno Miño Almirante Brown Aktiv 93 / 107 40% 1 05.10.2028 -
Gonzalo Flores Almirante Brown Verhandlung 107 / 106 40% 1 29.08.2028 -
Niki Radovič NK Krsko Verhandlung 99 / 96 72% 1 07.08.2028 Befürworten
Marcus Browne AFC Wimbledon Aktiv 105 / 118 40% 2 03.07.2028 -
Tyler Walton Bromley Aktiv 105 / 98 40% 2 03.07.2028 -
Ryan Kavuma-McQueen Accrington Stanley Aktiv 127 / 142 40% 4 27.06.2028 -
Stephen Humphrys Bradford City Aktiv 124 / 129 40% 6 27.06.2028 -
Olaf Kobacki Sheffield Wednesday Aktiv 120 / 108 40% 2 27.06.2028 -
Carlos Gugenheim Grimsby Town Aktiv 117 / 123 40% 5 24.06.2028 -
Christian Saydee Wigan Athletic Aktiv 117 / 123 40% 3 24.06.2028 -
Emanuele Schimmenti Potenza Aktiv 121 / 134 40% 3 24.06.2028 -
Ante Crnac Bristol Rovers Aktiv 117 / 121 40% 1 23.06.2028 -
John Yeboah Venezia Aktiv 137 / 139 40% 1 21.06.2028 -
Tyler Roberts Mansfield Town Aktiv 99 / 95 40% 1 21.06.2028 -
Igor Tyjon Barrow AFC Aktiv 109 / 122 40% 2 20.06.2028 -
Rocco Vata Watford Aktiv 131 / 135 40% 1 20.06.2028 -
Sam Dalby Bolton Wanderers Aktiv 108 / 124 40% 1 13.06.2028 -
Filip Slana NK Maribor Verhandlung 91 / 103 72% 1 06.06.2028 Befürworten
Kimarni Smith Newport County Aktiv 96 / 105 40% 4 31.05.2028 -
Alan Cisnero Exeter City Aktiv 107 / 123 40% 3 31.05.2028 -
Jack Vale Sorrento Aktiv 108 / 91 40% 2 30.05.2028 -
Admir Bristrić Cambridge United Aktiv 104 / 100 40% 4 29.05.2028 -
Kyle Wootton Stockport County Aktiv 122 / 130 40% 2 29.05.2028 -
Luca Williams-Barnett Walsall Aktiv 114 / 130 40% 2 28.05.2028 -
Elijah Adebayo Luton Town Aktiv 128 / 117 40% 2 27.05.2028 -
Sam Nombe Milton Keynes Dons Aktiv 112 / 102 40% 5 27.05.2028 -
Dale Taylor Blackpool Aktiv 113 / 123 40% 3 27.05.2028 -
Rui Costa Port Vale Aktiv 113 / 104 40% 3 26.05.2028 -
Timur Suleimanov Nizhniy Novgorod Aktiv 126 / 119 40% 3 26.05.2028 -
Tyrese Shade Burton Albion Aktiv 105 / 123 40% 2 26.05.2028 -
Miro Arsenal Tula Aktiv 114 / 115 40% 4 25.05.2028 -
Nicola Rauti Vicenza Aktiv 119 / 133 40% 1 25.05.2028 -
Simone Mazzocchi Cosenza Aktiv 125 / 99 40% 2 24.05.2028 -
Charlie Kelman Barnsley Aktiv 128 / 111 40% 3 24.05.2028 -
Matty Stevens AFC Wimbledon Aktiv 116 / 88 40% 3 21.05.2028 -
Ryan Graydon Salford City Aktiv 114 / 110 40% 2 21.05.2028 -
Manuel De Luca Cremonese Aktiv 128 / 113 40% 4 17.05.2028 -
Gennaro Tutino Sampdoria Aktiv 116 / 121 40% 1 14.05.2028 -
Giuseppe Panico Foggia Aktiv 119 / 135 40% 1 10.05.2028 -
Aaron Collins Milton Keynes Dons Aktiv 124 / 118 40% 1 10.05.2028 -
Kylian Kouassi Colchester United Aktiv 95 / 109 40% 1 09.05.2028 -
Gabriele Gori Ascoli Aktiv 117 / 131 40% 3 08.05.2028 Beobachten
Layton Stewart Barnet Aktiv 121 / 102 40% 1 06.05.2028 -
Johnny Kenny Preston Aktiv 111 / 115 40% 4 03.05.2028 -
Luca Moro Padova Aktiv 115 / 120 40% 1 03.05.2028 -
Camillo Tavernelli Arezzo Aktiv 121 / 117 40% 5 02.05.2028 -
Mees Rijks Bristol Rovers Aktiv 119 / 116 40% 3 02.05.2028 -
Liam Cullen Swansea City Aktiv 112 / 117 40% 1 01.05.2028 -
Walid Cheddira Avellino Aktiv 124 / 132 40% 2 30.04.2028 -
Giacomo Zecca Torres Aktiv 119 / 128 40% 2 23.04.2028 -
Louis Appéré Cambridge United Aktiv 110 / 103 40% 2 20.04.2028 -
Vyacheslav Grulev Nizhniy Novgorod Aktiv 118 / 121 40% 1 13.04.2028 -
Danny Butterworth Accrington Stanley Aktiv 94 / 118 40% 1 11.04.2028 -
Marco Tumminello Benevento Aktiv 116 / 128 40% 1 11.04.2028 -
Joshua Ajala Walsall Aktiv 92 / 123 40% 2 08.04.2028 -
Calum Kavanagh Oldham Athletic Aktiv 113 / 90 40% 1 08.04.2028 -
Nik Belovič Koper Aktiv 90 / 100 70% 1 01.01.2028 Befürworten
Bruno Župan NK Krka Aktiv 92 / 99 65% 1 26.07.2027 Befürworten
Daniil Sukhoruchko Metalist Aktiv 93 / 102 40% 1 20.07.2027 -
Indrit Tuci Olimpija Ljubljana Aktiv 109 / 122 40% 1 29.06.2027 -
Kamran Aliev SKA Khabarovsk Aktiv 99 / 88 40% 1 29.06.2027 -
Patrick Schmidt Tarxien Rainbows Aktiv 99 / 96 40% 1 01.06.2027 -
Gabriel Bačan NK Krsko Aktiv 80 / 76 65% 1 25.01.2027 Befürworten